Flag for U.S.A. Weather past 2 weeks in San Luis Obispo, California, U.S.A.

Now
69 °F

Scattered clouds.


Feels Like: 69 °F
Forecast: 53 / 68 °F
Wind: 12 mph from Northeast

Location: San Luis Obispo County-Mc Chesney Field

Current Time: Dec 22, 2014 at 12:50:02 PM

Latest Report: Dec 22, 2014 at 11:56 AM


Visibility: 10 mi

Pressure: 30.14 "Hg

Humidity: 57%

Dew point: 53 °F

Location of San Luis ObispoLocation

Historic Weather in San Luis Obispo — Graph

°F

San Luis Obispo temperature yesterday

Maximum temperature yesterday: 68 °F (at 12:56 PM)
Minimum temperature yesterday: 53 °F (at 3:56 AM)
Average temperature yesterday: 62 °F

Past Weeks' High & Low Weather Summary

 TemperatureHumidityPressure
High71 °F (Dec 8, 11:56 AM)100% (Dec 7, 9:56 PM)30.26 "Hg (Dec 7, 9:56 PM)
Low39 °F (Dec 13, 6:56 AM)44% (Dec 9, 12:56 PM)29.56 "Hg (Dec 11, 8:56 PM)
Average56 °F82%30.07 "Hg
* Reported Dec 7 11:56 AM — Dec 22 11:56 AM, San Luis Obispo, Weather by CustomWeather, © 2014

Note: Actual official high and low records may vary slightly from our data, if they occured in-between our weather recording intervals... More about our weather records

Advertising

San Luis Obispo weather history for previous 24 hours

 ConditionsComfort  
Time TempWeatherWind HumidityBarometerVisibility
11:56 AM
Dec 22
69 °FScattered clouds.12 mph57%30.14 "Hg10 mi
10:56 AM68 °FSunny.7 mph57%30.17 "Hg10 mi
9:56 AM67 °FSunny.12 mph59%30.19 "Hg10 mi
8:56 AM66 °FSunny.No wind63%30.18 "Hg10 mi
7:56 AM62 °FScattered clouds.3 mph70%30.16 "Hg10 mi
6:56 AM61 °FPassing clouds.3 mph72%30.16 "Hg10 mi
5:56 AM60 °FPassing clouds.5 mph78%30.16 "Hg10 mi
4:56 AM61 °FClear.9 mph75%30.15 "Hg10 mi
3:56 AM60 °FClear.6 mph78%30.16 "Hg10 mi
2:56 AM60 °FPassing clouds.5 mph78%30.17 "Hg10 mi
1:56 AM59 °FClear.8 mph81%30.18 "Hg10 mi
12:56 AM60 °FPassing clouds.8 mph80%30.19 "Hg10 mi
11:56 PM
Dec 21
60 °FClear.7 mph80%30.19 "Hg10 mi
10:56 PM60 °FPassing clouds.6 mph80%30.20 "Hg10 mi
9:56 PM61 °FPassing clouds.5 mph78%30.21 "Hg10 mi
8:56 PM63 °FMostly cloudy.10 mph75%30.21 "Hg10 mi
7:56 PM63 °FOvercast.No wind75%30.21 "Hg10 mi
6:56 PM63 °FPassing clouds.6 mph75%30.19 "Hg10 mi
5:56 PM65 °FOvercast.8 mph70%30.19 "Hg10 mi
4:56 PM63 °FPassing clouds.8 mph78%30.18 "Hg10 mi
3:56 PM66 °FSunny.9 mph65%30.18 "Hg10 mi
2:56 PM66 °FSunny.15 mph65%30.17 "Hg10 mi
1:56 PM68 °FPartly sunny.16 mph61%30.17 "Hg10 mi
12:56 PM68 °FSunny.10 mph61%30.18 "Hg10 mi
Weather by CustomWeather, © 2014

See weather overviewHow to use our weather pages